Regional Weather Roundup
Issued by NWS Goodland, KS

Home | Current Version | Previous Version | Graphics & Text | Print | Product List | Glossary On
Versions: 1 2 3 4 5 6 7 8 9 10 11 12 13 14 15 16 17 18 19 20 21 22 23 24 25 26 27 28 29 30 31 32 33 34 35 36 37 38 39 40 41 42 43 44 45 46 47 48 49 50
000
ASUS43 KGLD 220208
RWRGLD

GOODLAND FORECAST AREA HOURLY WEATHER ROUNDUP
NATIONAL WEATHER SERVICE GOODLAND KS
800 PM MDT SUN SEP 21 2014

...OFFICIAL OBSERVATIONS...

CITY           SKY/WX    TMP DP  RH WIND       PRES   REMARKS
GOODLAND KS    PTCLDY    61  44  53 SE7       30.32R
HILL CITY KS   CLEAR     61  42  49 E3        30.28R
IMPERIAL NEB   CLOUDY    61  46  57 E3        30.31R
MCCOOK NEB     CLEAR     62  43  49 E6        30.29R
AKRON CO       MOCLDY    61  41  47 SE15      30.31R
BURLINGTON CO  PTCLDY    63  40  42 SE8       30.33R
LIMON CO       CLEAR     61  41  47 SE10      30.35R
$$

...UNOFFICIAL OBSERVATIONS...

CITY           SKY/WX    TMP DP  RH WIND       PRES   REMARKS
COLBY KS       MOCLDY    64  46  52 E8        30.32R
GOVE KS          N/A     63  32  31 MISG        N/A
NORTON KS      CLEAR     59  36  41 CALM      30.27R
SHARON SPRINGS   N/A     62  43  49 CALM        N/A
WAKEENEY KS      N/A     62  35  37 MISG        N/A
TRENTON NEB      N/A     63  32  31 E7          N/A
KIT CARSON CO    N/A     65  41  41 CALM        N/A
YUMA CO          N/A     61  43  51 N8          N/A
$$


USA.gov is the U.S. government's official web portal to all federal, state and local government web resources and services.